Back to catalog

COSMOS 1624

AliveMilitaryLEO
NORAD 15482·PAYLOAD·🇷🇺 Russia

Launched Jan 17, 1985 from Plesetsk Cosmodrome

Loading…

Next Passes (next 24 hours)

TLE

FreshSource: Space-Track

Epoch: Sep 14, 2026, 08:03 UTC

1 15482U 85006A   26257.33560916  .00000073  00000-0  35581-4 0  9990
2 15482  74.0431  30.6158 0015401 252.7893 127.6912 14.33989082177045

Track COSMOS 1624 in real time with AllMySat

Download on the App Store